TimeCST,TemperatureF,Dew PointF,Humidity,Sea Level PressureIn,VisibilityMPH,Wind Direction,Wind SpeedMPH,Gust SpeedMPH,PrecipitationIn,Events,Conditions,WindDirDegrees,DateUTC
12:02 AM,-18.4,-23.8,76,30.18,10.0,Calm,Calm,-,N/A,,Clear,0,2013-01-01 06:02:00
12:22 AM,-18.4,-22.0,84,30.17,10.0,Calm,Calm,-,N/A,,Clear,0,2013-01-01 06:22:00
12:42 AM,-18.4,-22.0,84,30.17,10.0,Calm,Calm,-,N/A,,Clear,0,2013-01-01 06:42:00
1:02 AM,-18.4,-22.0,84,30.17,10.0,Calm,Calm,-,N/A,,Clear,0,2013-01-01 07:02:00
1:22 AM,-18.4,-23.8,76,30.17,10.0,Calm,Calm,-,N/A,,Clear,0,2013-01-01 07:22:00
1:42 AM,-18.4,-23.8,76,30.17,10.0,Calm,Calm,-,N/A,,Clear,0,2013-01-01 07:42:00
2:02 AM,-18.4,-23.8,76,30.17,10.0,Calm,Calm,-,N/A,,Clear,0,2013-01-01 08:02:00
2:22 AM,-18.4,-23.8,76,30.18,10.0,Calm,Calm,-,N/A,,Clear,0,2013-01-01 08:22:00
2:42 AM,-18.4,-23.8,76,30.18,10.0,Calm,Calm,-,N/A,,Clear,0,2013-01-01 08:42:00
3:02 AM,-18.4,-23.8,76,30.17,10.0,Calm,Calm,-,N/A,,Clear,0,2013-01-01 09:02:00
3:22 AM,-18.4,-23.8,76,30.17,10.0,Calm,Calm,-,N/A,,Clear,0,2013-01-01 09:22:00
3:42 AM,-20.2,-25.6,76,30.17,10.0,Calm,Calm,-,N/A,,Clear,0,2013-01-01 09:42:00
4:02 AM,-20.2,-25.6,76,30.17,10.0,Calm,Calm,-,N/A,,Clear,0,2013-01-01 10:02:00
4:22 AM,-20.2,-25.6,76,30.17,10.0,Calm,Calm,-,N/A,,Clear,0,2013-01-01 10:22:00
4:42 AM,-20.2,-25.6,76,30.15,10.0,Calm,Calm,-,N/A,,Clear,0,2013-01-01 10:42:00
5:02 AM,-20.2,-25.6,76,30.14,10.0,Calm,Calm,-,N/A,,Clear,0,2013-01-01 11:02:00
5:22 AM,-20.2,-25.6,76,30.14,10.0,Calm,Calm,-,N/A,,Clear,0,2013-01-01 11:22:00
5:42 AM,-20.2,-25.6,76,30.14,10.0,Calm,Calm,-,N/A,,Clear,0,2013-01-01 11:42:00
6:02 AM,-20.2,-25.6,76,30.13,10.0,Calm,Calm,-,N/A,,Clear,0,2013-01-01 12:02:00
6:22 AM,-20.2,-25.6,76,30.13,10.0,Calm,Calm,-,N/A,,Clear,0,2013-01-01 12:22:00
6:42 AM,-20.2,-25.6,76,30.12,10.0,Calm,Calm,-,N/A,,Clear,0,2013-01-01 12:42:00
7:02 AM,-20.2,-25.6,76,30.11,10.0,Calm,Calm,-,N/A,,Clear,0,2013-01-01 13:02:00
7:22 AM,-20.2,-25.6,76,30.11,10.0,Calm,Calm,-,N/A,,Clear,0,2013-01-01 13:22:00
7:42 AM,-20.2,-25.6,76,30.10,10.0,Calm,Calm,-,N/A,,Clear,0,2013-01-01 13:42:00
8:02 AM,-18.4,-23.8,76,30.10,10.0,Calm,Calm,-,N/A,,Clear,0,2013-01-01 14:02:00
8:22 AM,-18.4,-22.0,84,30.10,10.0,Calm,Calm,-,N/A,,Clear,0,2013-01-01 14:22:00
8:42 AM,-16.6,-20.2,84,30.10,10.0,Calm,Calm,-,N/A,,Clear,0,2013-01-01 14:42:00
9:02 AM,-13.0,-16.6,84,30.09,10.0,Calm,Calm,-,N/A,,Clear,0,2013-01-01 15:02:00
9:22 AM,-9.4,-11.2,92,30.08,10.0,Calm,Calm,-,N/A,,Clear,0,2013-01-01 15:22:00
9:42 AM,-5.8,-7.6,92,30.08,10.0,SW,3.5,-,N/A,,Clear,220,2013-01-01 15:42:00
10:02 AM,-0.4,-4.0,85,30.07,10.0,SW,4.6,-,N/A,,Clear,220,2013-01-01 16:02:00
10:22 AM,1.4,-2.2,85,30.06,10.0,SSW,4.6,-,N/A,,Clear,210,2013-01-01 16:22:00
10:42 AM,3.2,-0.4,85,30.05,10.0,SSW,6.9,-,N/A,,Clear,210,2013-01-01 16:42:00
11:02 AM,3.2,-2.2,78,30.04,10.0,SW,10.4,-,N/A,,Clear,220,2013-01-01 17:02:00
11:22 AM,6.8,1.4,79,30.03,10.0,West,3.5,-,N/A,,Clear,260,2013-01-01 17:22:00
11:42 AM,8.6,3.2,79,30.02,10.0,WSW,6.9,-,N/A,,Clear,240,2013-01-01 17:42:00
12:02 PM,10.4,5.0,79,30.01,10.0,SSW,4.6,-,N/A,,Clear,200,2013-01-01 18:02:00
12:22 PM,8.6,1.4,73,30.00,10.0,South,4.6,-,N/A,,Mostly Cloudy,190,2013-01-01 18:22:00
12:42 PM,6.8,1.4,79,30.00,4.0,SSW,6.9,-,N/A,Snow,Light Snow,200,2013-01-01 18:42:00
1:02 PM,6.8,1.4,79,29.98,3.0,SSW,5.8,-,N/A,Snow,Light Snow,200,2013-01-01 19:02:00
1:22 PM,6.8,1.4,79,29.98,3.0,SSW,5.8,-,N/A,Snow,Light Snow,200,2013-01-01 19:22:00
1:42 PM,8.6,1.4,73,29.97,3.0,South,4.6,-,N/A,Snow,Light Snow,190,2013-01-01 19:42:00
2:02 PM,8.6,3.2,79,29.97,2.5,SSW,4.6,-,N/A,Snow,Light Snow,210,2013-01-01 20:02:00
2:22 PM,8.6,3.2,79,29.97,2.5,WSW,3.5,-,N/A,Snow,Light Snow,240,2013-01-01 20:22:00
2:42 PM,8.6,3.2,79,29.97,1.8,SSW,3.5,-,N/A,Snow,Light Snow,200,2013-01-01 20:42:00
3:02 PM,8.6,3.2,79,29.98,1.5,SSW,4.6,-,N/A,Snow,Light Snow,200,2013-01-01 21:02:00
3:22 PM,8.6,3.2,79,29.97,1.5,Calm,Calm,-,N/A,Snow,Light Snow,0,2013-01-01 21:22:00
3:42 PM,8.6,5.0,85,29.97,2.0,South,3.5,-,N/A,Snow,Light Snow,190,2013-01-01 21:42:00
4:02 PM,8.6,5.0,85,29.97,2.0,Calm,Calm,-,N/A,Snow,Light Snow,0,2013-01-01 22:02:00
4:22 PM,8.6,5.0,85,29.97,2.5,South,3.5,-,N/A,Snow,Light Snow,180,2013-01-01 22:22:00
4:42 PM,8.6,6.8,92,29.97,4.0,Calm,Calm,-,N/A,Snow,Light Snow,0,2013-01-01 22:42:00
5:02 PM,8.6,6.8,92,29.97,4.0,Calm,Calm,-,N/A,Snow,Light Snow,0,2013-01-01 23:02:00
5:22 PM,10.4,6.8,85,29.97,4.0,Calm,Calm,-,N/A,Snow,Light Snow,0,2013-01-01 23:22:00
5:42 PM,10.4,6.8,85,29.97,7.0,South,3.5,-,N/A,Snow,Light Snow,170,2013-01-01 23:42:00
6:02 PM,10.4,8.6,92,29.96,10.0,South,4.6,-,N/A,Snow,Light Snow,180,2013-01-02 00:02:00
6:22 PM,10.4,8.6,92,29.96,10.0,South,4.6,-,N/A,,Overcast,180,2013-01-02 00:22:00
6:42 PM,10.4,8.6,92,29.95,10.0,South,5.8,-,N/A,,Overcast,190,2013-01-02 00:42:00
7:02 PM,10.4,8.6,92,29.95,10.0,South,6.9,-,N/A,,Overcast,190,2013-01-02 01:02:00
7:22 PM,10.4,8.6,92,29.95,10.0,SSW,4.6,-,N/A,,Overcast,210,2013-01-02 01:22:00
7:42 PM,10.4,8.6,92,29.95,10.0,SSW,4.6,-,N/A,,Overcast,200,2013-01-02 01:42:00
8:02 PM,10.4,8.6,92,29.94,10.0,Calm,Calm,-,N/A,,Overcast,0,2013-01-02 02:02:00
8:22 PM,10.4,8.6,92,29.93,10.0,South,4.6,-,N/A,,Overcast,180,2013-01-02 02:22:00
8:42 PM,10.4,8.6,92,29.92,10.0,SSE,4.6,-,N/A,Snow,Light Snow,160,2013-01-02 02:42:00
9:02 PM,12.2,8.6,85,29.92,10.0,Calm,Calm,-,N/A,,Overcast,0,2013-01-02 03:02:00
9:22 PM,12.2,10.4,92,29.92,10.0,Calm,Calm,-,N/A,,Overcast,0,2013-01-02 03:22:00
9:42 PM,12.2,10.4,92,29.92,10.0,South,3.5,-,N/A,,Overcast,170,2013-01-02 03:42:00
10:02 PM,12.2,10.4,92,29.91,10.0,South,4.6,-,N/A,,Overcast,170,2013-01-02 04:02:00
10:22 PM,12.2,10.4,92,29.91,10.0,South,3.5,-,N/A,,Overcast,170,2013-01-02 04:22:00
10:42 PM,12.2,10.4,92,29.91,10.0,South,3.5,-,N/A,,Overcast,170,2013-01-02 04:42:00
11:02 PM,12.2,10.4,92,29.91,10.0,South,4.6,-,N/A,,Overcast,180,2013-01-02 05:02:00
11:22 PM,12.2,10.4,92,29.90,10.0,SSE,4.6,-,N/A,,Overcast,160,2013-01-02 05:22:00
11:42 PM,12.2,10.4,92,29.90,7.0,SSE,4.6,-,N/A,,Overcast,160,2013-01-02 05:42:00